This is the latest recevied weather packets stored in our database for station/object HB4LO-13. If no packets are shown the sender has not sent any weather packets the latest 1 day(s).
| Time | Temp. | Humidity | Pressure | Rain* | Wind** | Luminosity | Snow |
|---|---|---|---|---|---|---|---|
| 1777993446 | 15° C | 62% | - | 0 mm | 1.79 m/s, 184° | - | - |
| 1777993386 | 15.56° C | 62% | - | 0 mm | 1.79 m/s, 170° | - | - |
| 1777993326 | 15° C | 62% | - | 0 mm | 0.89 m/s, 164° | - | - |
| 1777993266 | 15° C | 62% | - | 0 mm | 0.89 m/s, 186° | - | - |
| 1777993206 | 15° C | 62% | - | 0 mm | 1.79 m/s, 174° | - | - |
| 1777993146 | 15° C | 62% | - | 0 mm | 1.79 m/s, 171° | - | - |
| 1777993086 | 15° C | 62% | - | 0 mm | 1.79 m/s, 166° | - | - |
| 1777993026 | 15° C | 62% | - | 0 mm | 1.34 m/s, 186° | - | - |
| 1777992966 | 15° C | 62% | - | 0 mm | 1.79 m/s, 171° | - | - |
| 1777992906 | 15° C | 62% | - | 0 mm | 1.34 m/s, 185° | - | - |
| 1777992846 | 15° C | 62% | - | 0 mm | 1.34 m/s, 167° | - | - |
| 1777992832 | 15° C | 62% | - | 0 mm | 2.24 m/s, 172° | - | - |
| 1777992786 | 15° C | 62% | - | 0 mm | 2.24 m/s, 172° | - | - |
| 1777992726 | 15° C | 62% | - | 0 mm | 1.79 m/s, 165° | - | - |
| 1777992666 | 15° C | 62% | - | 0 mm | 1.79 m/s, 171° | - | - |
| 1777992606 | 15° C | 62% | - | 0 mm | 1.34 m/s, 187° | - | - |
| 1777992546 | 15° C | 62% | - | 0 mm | 1.34 m/s, 174° | - | - |
| 1777992486 | 15° C | 62% | - | 0 mm | 1.79 m/s, 169° | - | - |
| 1777992426 | 15° C | 62% | - | 0 mm | 1.79 m/s, 186° | - | - |
| 1777992366 | 15° C | 62% | - | 0 mm | 2.68 m/s, 181° | - | - |
| 1777992339 | 15° C | 62% | - | 0 mm | 1.79 m/s, 173° | - | - |
| 1777992306 | 15° C | 62% | - | 0 mm | 1.79 m/s, 173° | - | - |
| 1777992246 | 15° C | 62% | - | 0 mm | 1.79 m/s, 183° | - | - |
| 1777992186 | 15° C | 62% | - | 0 mm | 1.79 m/s, 177° | - | - |
| 1777992126 | 15° C | 62% | - | 0 mm | 2.24 m/s, 169° | - | - |
* Rain latest hour (hover to see other rain measurements)
** Current wind speed in m/s (hover to see current wind gust speed)